Regional Weather Roundup
Issued by NWS

Home | Current Version | Previous Version | Text Only | Print | Product List | Glossary On
Versions: 1 2 3 4 5 6 7 8 9 10 11 12 13 14 15 16 17 18 19 20 21 22 23 24 25 26 27 28 29 30 31 32 33 34 35 36 37 38 39 40 41 42 43 44 45 46 47 48 49 50
000
ASUS43 KBIS 042210
RWRND

NORTH DAKOTA REGIONAL WEATHER ROUNDUP
NATIONAL WEATHER SERVICE BISMARCK ND
500 PM CDT TUE AUG 04 2015

NOTE: "FAIR" INDICATES FEW OR NO CLOUDS BELOW 12,000 FEET WITH NO
SIGNIFICANT WEATHER AND/OR OBSTRUCTIONS TO VISIBILITY.


NDZ001>003-009>011-017-042300-
NORTHWEST NORTH DAKOTA

CITY           SKY/WX    TMP DP  RH WIND       PRES   REMARKS
WILLISTON      SUNNY     88  52  29 SE14      29.90F
MINOT          SUNNY     83  48  29 E8        29.95F
MINOT AFB      SUNNY     83  48  29 SE9       29.95S
$$

NDZ018>021-031>035-040>046-042300-
SOUTHWEST NORTH DAKOTA

CITY           SKY/WX    TMP DP  RH WIND       PRES   REMARKS
BISMARCK       SUNNY     86  54  33 MISG      29.95F
DICKINSON      SUNNY     85  56  37 SE16      29.93F
GARRISON         N/A     81  56  42 E8        29.96S
HETTINGER ARPT PTSUNNY   87  53  31 SE13G22   29.96S
$$

NDZ004>008-012>016-024-026-027-054-042300-
NORTHEAST NORTH DAKOTA

CITY           SKY/WX    TMP DP  RH WIND       PRES   REMARKS
GRAND FORKS    SUNNY     77  54  44 VRB7G16   29.99F
GRND FRKS AFB  SUNNY     76  54  46 NE8       30.00F
DEVILS LAKE    SUNNY     77  52  41 SE8       29.99F
$$

NDZ022-023-025-028>030-036>039-047>053-042300-
SOUTHEAST NORTH DAKOTA

CITY           SKY/WX    TMP DP  RH WIND       PRES   REMARKS
FARGO          SUNNY     81  51  35 N6        29.99S
JAMESTOWN      SUNNY     79  53  40 E7        29.99S
$$




USA.gov is the U.S. government's official web portal to all federal, state and local government web resources and services.